AZU4656 SBFZ-SBRF

Flight info

Callsign AZU4656
Flight time 0h 59m
Altitude 33000
Route UTMAR UZ70 UGTUN
Aircraft A20N/M-SDE3FGHIRWY/LB1

Departure

Time 2026-04-29 23:12
Airport Pinto Martins International Airport (SBFZ)

Arrival

Time 2026-04-30 00:12
Airport Recife/Guararapes - Gilberto Freyre International Airport (SBRF)
Time Latitude Longitude Altitude Speed Heading
2026-04-29 22:48 -3.77812 -38.53963 92 ft 0 kts 201°
2026-04-29 23:00 -3.77807 -38.53961 92 ft 4 kts 202°
2026-04-29 23:00 -3.77782 -38.53950 92 ft 4 kts 209°
2026-04-29 23:01 -3.77760 -38.53935 92 ft 4 kts 226°
2026-04-29 23:01 -3.77748 -38.53916 94 ft 4 kts 280°
2026-04-29 23:01 -3.77751 -38.53905 93 ft 1 kts 303°
2026-04-29 23:01 -3.77752 -38.53905 93 ft 0 kts 303°
2026-04-29 23:04 -3.77751 -38.53906 93 ft 0 kts 303°
2026-04-29 23:04 -3.77745 -38.53915 94 ft 4 kts 304°
2026-04-29 23:04 -3.77720 -38.53953 93 ft 9 kts 303°
2026-04-29 23:05 -3.77697 -38.54024 92 ft 12 kts 284°
2026-04-29 23:05 -3.77676 -38.54104 92 ft 12 kts 283°
2026-04-29 23:05 -3.77656 -38.54181 93 ft 11 kts 286°
2026-04-29 23:05 -3.77637 -38.54249 94 ft 9 kts 285°
2026-04-29 23:06 -3.77623 -38.54304 94 ft 0 kts 286°
2026-04-29 23:06 -3.77617 -38.54324 94 ft 7 kts 284°
2026-04-29 23:06 -3.77604 -38.54357 95 ft 8 kts 311°
2026-04-29 23:06 -3.77555 -38.54374 94 ft 4 kts 348°
2026-04-29 23:07 -3.77507 -38.54383 93 ft 8 kts 351°
2026-04-29 23:07 -3.77447 -38.54378 96 ft 3 kts 13°
2026-04-29 23:07 -3.77444 -38.54377 95 ft 0 kts 13°
2026-04-29 23:11 -3.77443 -38.54377 94 ft 1 kts 13°
2026-04-29 23:11 -3.77391 -38.54365 96 ft 13 kts 11°
2026-04-29 23:11 -3.77351 -38.54319 99 ft 9 kts 86°
2026-04-29 23:11 -3.77355 -38.54300 98 ft 0 kts 106°
2026-04-29 23:12 -3.77389 -38.54174 97 ft 54 kts 105°
2026-04-29 23:12 -3.77545 -38.53585 92 ft 118 kts 105°
2026-04-29 23:12 -3.77800 -38.52629 112 ft 163 kts 104°
2026-04-29 23:12 -3.78085 -38.51551 763 ft 157 kts 103°
2026-04-29 23:13 -3.78360 -38.50496 1390 ft 157 kts 105°
2026-04-29 23:13 -3.78664 -38.49367 1759 ft 179 kts 106°
2026-04-29 23:13 -3.79040 -38.48098 2051 ft 202 kts 111°
2026-04-29 23:13 -3.79962 -38.46961 2393 ft 227 kts 146°
2026-04-29 23:14 -3.81457 -38.46234 2852 ft 248 kts 158°
2026-04-29 23:14 -3.83140 -38.45738 3633 ft 255 kts 165°
2026-04-29 23:14 -3.84873 -38.45340 4566 ft 256 kts 165°
2026-04-29 23:14 -3.86616 -38.44948 5436 ft 257 kts 165°
2026-04-29 23:15 -3.88375 -38.44556 6248 ft 261 kts 165°
2026-04-29 23:15 -3.90165 -38.44160 7009 ft 265 kts 165°
2026-04-29 23:15 -3.91985 -38.43757 7750 ft 270 kts 165°
2026-04-29 23:15 -3.93841 -38.43347 8482 ft 276 kts 165°
2026-04-29 23:16 -3.95731 -38.42929 9205 ft 281 kts 165°
2026-04-29 23:16 -3.97661 -38.42502 9907 ft 286 kts 165°
2026-04-29 23:16 -3.99652 -38.42059 10278 ft 304 kts 165°
2026-04-29 23:16 -4.01797 -38.41578 10456 ft 327 kts 165°
2026-04-29 23:17 -4.04097 -38.41062 10584 ft 350 kts 166°
2026-04-29 23:17 -4.06544 -38.40517 10710 ft 370 kts 166°
2026-04-29 23:17 -4.09120 -38.39947 10912 ft 386 kts 166°
2026-04-29 23:17 -4.11731 -38.39370 11388 ft 392 kts 166°
2026-04-29 23:18 -4.14404 -38.38781 11915 ft 395 kts 166°
2026-04-29 23:18 -4.17102 -38.38188 12467 ft 399 kts 166°
2026-04-29 23:18 -4.19823 -38.37591 12977 ft 402 kts 166°
2026-04-29 23:18 -4.22571 -38.36985 13470 ft 406 kts 166°
2026-04-29 23:19 -4.25341 -38.36370 13921 ft 409 kts 166°
2026-04-29 23:19 -4.28134 -38.35750 14348 ft 413 kts 166°
2026-04-29 23:19 -4.30947 -38.35127 14771 ft 416 kts 165°
2026-04-29 23:19 -4.33778 -38.34498 15191 ft 418 kts 165°
2026-04-29 23:20 -4.36632 -38.33864 15604 ft 421 kts 165°
2026-04-29 23:20 -4.39503 -38.33228 16008 ft 424 kts 165°
2026-04-29 23:20 -4.42397 -38.32588 16406 ft 427 kts 165°
2026-04-29 23:20 -4.45304 -38.31944 16792 ft 430 kts 165°
2026-04-29 23:21 -4.48234 -38.31293 17174 ft 433 kts 165°
2026-04-29 23:21 -4.51139 -38.30507 17538 ft 433 kts 157°
2026-04-29 23:21 -4.53863 -38.29251 17918 ft 431 kts 147°
2026-04-29 23:21 -4.56324 -38.27542 18276 ft 430 kts 138°
2026-04-29 23:22 -4.58639 -38.25630 18581 ft 432 kts 138°
2026-04-29 23:22 -4.60967 -38.23715 18905 ft 434 kts 138°
2026-04-29 23:22 -4.63310 -38.21792 19224 ft 436 kts 138°
2026-04-29 23:22 -4.65661 -38.19863 19541 ft 438 kts 138°
2026-04-29 23:23 -4.68021 -38.17928 19846 ft 439 kts 138°
2026-04-29 23:23 -4.70388 -38.15981 20144 ft 441 kts 137°
2026-04-29 23:23 -4.72767 -38.14021 20444 ft 443 kts 137°
2026-04-29 23:23 -4.75152 -38.12059 20735 ft 445 kts 137°
2026-04-29 23:24 -4.77517 -38.10113 21030 ft 446 kts 137°
2026-04-29 23:24 -4.79952 -38.08108 21314 ft 448 kts 137°
2026-04-29 23:24 -4.82366 -38.06121 21621 ft 449 kts 137°
2026-04-29 23:24 -4.84750 -38.04162 21916 ft 450 kts 137°
2026-04-29 23:25 -4.87175 -38.02172 22188 ft 451 kts 137°
2026-04-29 23:25 -4.89611 -38.00174 22441 ft 453 kts 137°
2026-04-29 23:25 -4.92054 -37.98167 22668 ft 455 kts 137°
2026-04-29 23:25 -4.94501 -37.96150 22897 ft 456 kts 137°
2026-04-29 23:26 -4.96956 -37.94125 23117 ft 458 kts 137°
2026-04-29 23:26 -4.99421 -37.92097 23310 ft 459 kts 137°
2026-04-29 23:26 -5.01899 -37.90060 23523 ft 461 kts 137°
2026-04-29 23:26 -5.04380 -37.88018 23701 ft 462 kts 137°
2026-04-29 23:27 -5.06867 -37.85970 23885 ft 463 kts 137°
2026-04-29 23:27 -5.09363 -37.83916 24068 ft 465 kts 137°
2026-04-29 23:27 -5.11866 -37.81856 24243 ft 466 kts 137°
2026-04-29 23:27 -5.14372 -37.79792 24458 ft 466 kts 137°
2026-04-29 23:28 -5.16881 -37.77727 24661 ft 467 kts 138°
2026-04-29 23:28 -5.19390 -37.75664 24919 ft 466 kts 138°
2026-04-29 23:28 -5.21894 -37.73602 25184 ft 465 kts 138°
2026-04-29 23:28 -5.24391 -37.71544 25456 ft 465 kts 138°
2026-04-29 23:29 -5.26888 -37.69485 25718 ft 464 kts 138°
2026-04-29 23:29 -5.29381 -37.67429 25983 ft 464 kts 138°
2026-04-29 23:29 -5.31873 -37.65374 26254 ft 464 kts 138°
2026-04-29 23:29 -5.34365 -37.63319 26533 ft 463 kts 139°
2026-04-29 23:30 -5.36854 -37.61269 26818 ft 463 kts 139°
2026-04-29 23:30 -5.39343 -37.59218 27114 ft 462 kts 139°
2026-04-29 23:30 -5.41824 -37.57172 27403 ft 462 kts 139°
2026-04-29 23:30 -5.44303 -37.55128 27709 ft 461 kts 139°
2026-04-29 23:31 -5.46776 -37.53086 28041 ft 460 kts 139°
2026-04-29 23:31 -5.49244 -37.51048 28373 ft 459 kts 139°
2026-04-29 23:31 -5.51708 -37.49013 28675 ft 459 kts 139°
2026-04-29 23:31 -5.54171 -37.46980 28986 ft 458 kts 139°
2026-04-29 23:32 -5.56631 -37.44949 29294 ft 458 kts 140°
2026-04-29 23:32 -5.59092 -37.42917 29603 ft 458 kts 140°
2026-04-29 23:32 -5.61547 -37.40889 29918 ft 457 kts 140°
2026-04-29 23:32 -5.64004 -37.38858 30198 ft 457 kts 140°
2026-04-29 23:33 -5.66454 -37.36832 30466 ft 457 kts 140°
2026-04-29 23:33 -5.68909 -37.34806 30739 ft 456 kts 140°
2026-04-29 23:33 -5.71363 -37.32784 31016 ft 456 kts 140°
2026-04-29 23:33 -5.73814 -37.30766 31286 ft 456 kts 140°
2026-04-29 23:34 -5.76262 -37.28747 31555 ft 456 kts 140°
2026-04-29 23:34 -5.78711 -37.26726 31830 ft 455 kts 140°
2026-04-29 23:34 -5.81156 -37.24705 32107 ft 455 kts 140°
2026-04-29 23:34 -5.83599 -37.22686 32390 ft 455 kts 140°
2026-04-29 23:35 -5.86040 -37.20664 32673 ft 454 kts 141°
2026-04-29 23:35 -5.88477 -37.18645 32881 ft 455 kts 141°
2026-04-29 23:35 -5.93406 -37.14573 32932 ft 462 kts 141°
2026-04-29 23:36 -5.98375 -37.10467 32936 ft 463 kts 141°
2026-04-29 23:36 -6.03348 -37.06352 32937 ft 463 kts 141°
2026-04-29 23:37 -6.08322 -37.02233 32947 ft 463 kts 141°
2026-04-29 23:37 -6.13294 -36.98126 32939 ft 463 kts 141°
2026-04-29 23:38 -6.18263 -36.94020 32947 ft 462 kts 141°
2026-04-29 23:38 -6.23226 -36.89904 32948 ft 462 kts 141°
2026-04-29 23:39 -6.28189 -36.85793 32949 ft 462 kts 141°
2026-04-29 23:39 -6.33151 -36.81686 32950 ft 462 kts 141°
2026-04-29 23:40 -6.38117 -36.77584 32950 ft 462 kts 141°
2026-04-29 23:40 -6.43047 -36.73501 32960 ft 462 kts 141°
2026-04-29 23:41 -6.48003 -36.69382 32967 ft 462 kts 141°
2026-04-29 23:41 -6.52966 -36.65268 32967 ft 462 kts 141°
2026-04-29 23:42 -6.57935 -36.61159 32976 ft 462 kts 141°
2026-04-29 23:42 -6.62899 -36.57048 32978 ft 462 kts 141°
2026-04-29 23:43 -6.67854 -36.52935 32983 ft 462 kts 141°
2026-04-29 23:43 -6.72807 -36.48817 32986 ft 462 kts 141°
2026-04-29 23:44 -6.76924 -36.45394 32984 ft 461 kts 141°
2026-04-29 23:44 -6.81874 -36.41284 32987 ft 461 kts 141°
2026-04-29 23:45 -6.86819 -36.37171 32986 ft 461 kts 140°
2026-04-29 23:45 -6.90993 -36.32284 32986 ft 463 kts 123°
2026-04-29 23:46 -6.94375 -36.26764 32988 ft 464 kts 123°
2026-04-29 23:46 -6.97766 -36.21238 32992 ft 464 kts 123°
2026-04-29 23:47 -7.01167 -36.15715 32993 ft 464 kts 123°
2026-04-29 23:47 -7.04567 -36.10191 33001 ft 464 kts 123°
2026-04-29 23:48 -7.07965 -36.04668 33009 ft 464 kts 123°
2026-04-29 23:48 -7.11365 -35.99141 33022 ft 464 kts 123°
2026-04-29 23:49 -7.14741 -35.93619 33044 ft 462 kts 123°
2026-04-29 23:49 -7.16408 -35.90901 32548 ft 463 kts 123°
2026-04-29 23:49 -7.18134 -35.88091 31481 ft 469 kts 122°
2026-04-29 23:50 -7.19851 -35.85298 30385 ft 467 kts 122°
2026-04-29 23:50 -7.21565 -35.82510 28632 ft 469 kts 121°
2026-04-29 23:50 -7.24985 -35.76943 25045 ft 471 kts 120°
2026-04-29 23:51 -7.26701 -35.74146 23754 ft 463 kts 120°
2026-04-29 23:51 -7.28361 -35.71446 22780 ft 443 kts 119°
2026-04-29 23:51 -7.29946 -35.68867 21954 ft 424 kts 119°
2026-04-29 23:51 -7.31479 -35.66370 21196 ft 419 kts 119°
2026-04-29 23:52 -7.33008 -35.63874 20415 ft 418 kts 119°
2026-04-29 23:52 -7.34533 -35.61380 19640 ft 417 kts 119°
2026-04-29 23:52 -7.36054 -35.58892 18889 ft 417 kts 119°
2026-04-29 23:52 -7.37573 -35.56407 18126 ft 416 kts 119°
2026-04-29 23:53 -7.39086 -35.53935 17338 ft 414 kts 120°
2026-04-29 23:53 -7.40594 -35.51476 16642 ft 410 kts 120°
2026-04-29 23:53 -7.42086 -35.49041 15950 ft 407 kts 120°
2026-04-29 23:53 -7.43567 -35.46618 15288 ft 404 kts 120°
2026-04-29 23:54 -7.45036 -35.44215 14637 ft 402 kts 120°
2026-04-29 23:54 -7.46497 -35.41826 14005 ft 399 kts 120°
2026-04-29 23:54 -7.47953 -35.39448 13334 ft 397 kts 120°
2026-04-29 23:54 -7.49395 -35.37095 12726 ft 393 kts 121°
2026-04-29 23:55 -7.50823 -35.34766 12117 ft 388 kts 121°
2026-04-29 23:55 -7.52233 -35.32463 11511 ft 384 kts 121°
2026-04-29 23:55 -7.53597 -35.30231 11225 ft 359 kts 120°
2026-04-29 23:55 -7.54851 -35.28178 11098 ft 330 kts 120°
2026-04-29 23:56 -7.56009 -35.26284 10967 ft 305 kts 120°
2026-04-29 23:56 -7.57096 -35.24503 10590 ft 293 kts 120°
2026-04-29 23:56 -7.58156 -35.22768 10363 ft 289 kts 120°
2026-04-29 23:56 -7.59207 -35.21046 10139 ft 288 kts 120°
2026-04-29 23:57 -7.60258 -35.19330 9933 ft 287 kts 120°
2026-04-29 23:57 -7.61303 -35.17622 9816 ft 287 kts 120°
2026-04-29 23:57 -7.62347 -35.15910 9690 ft 286 kts 120°
2026-04-29 23:57 -7.63386 -35.14205 9557 ft 285 kts 121°
2026-04-29 23:58 -7.64425 -35.12504 9434 ft 284 kts 120°
2026-04-29 23:58 -7.65461 -35.10810 9300 ft 284 kts 121°
2026-04-29 23:58 -7.66496 -35.09120 9183 ft 283 kts 122°
2026-04-29 23:58 -7.67762 -35.07601 8784 ft 286 kts 138°
2026-04-29 23:59 -7.69419 -35.06513 8466 ft 284 kts 154°
2026-04-29 23:59 -7.71274 -35.05857 8092 ft 282 kts 161°
2026-04-29 23:59 -7.73141 -35.05265 7730 ft 280 kts 160°
2026-04-29 23:59 -7.74991 -35.04671 7390 ft 277 kts 160°
2026-04-30 00:00 -7.76766 -35.04099 7252 ft 266 kts 160°
2026-04-30 00:00 -7.78469 -35.03551 7132 ft 247 kts 160°
2026-04-30 00:00 -7.80041 -35.03046 7017 ft 228 kts 160°
2026-04-30 00:00 -7.81499 -35.02576 6896 ft 213 kts 160°
2026-04-30 00:01 -7.82885 -35.02129 6777 ft 205 kts 160°
2026-04-30 00:01 -7.84221 -35.01697 6672 ft 198 kts 160°
2026-04-30 00:01 -7.85504 -35.01283 6566 ft 188 kts 160°
2026-04-30 00:01 -7.86716 -35.00864 6333 ft 181 kts 152°
2026-04-30 00:02 -7.87556 -34.99974 6050 ft 179 kts 113°
2026-04-30 00:02 -7.87594 -34.98709 5664 ft 191 kts 75°
2026-04-30 00:02 -7.86812 -34.97577 5145 ft 210 kts 43°
2026-04-30 00:02 -7.85420 -34.97014 4708 ft 226 kts
2026-04-30 00:03 -7.83858 -34.97260 4299 ft 231 kts 345°
2026-04-30 00:03 -7.82326 -34.97773 3905 ft 232 kts 342°
2026-04-30 00:03 -7.80872 -34.98452 3581 ft 231 kts 320°
2026-04-30 00:03 -7.79980 -34.99747 3241 ft 225 kts 283°
2026-04-30 00:04 -7.79969 -35.01260 3011 ft 214 kts 248°
2026-04-30 00:04 -7.80721 -35.02513 3008 ft 207 kts 217°
2026-04-30 00:04 -7.81953 -35.03180 3007 ft 200 kts 188°
2026-04-30 00:04 -7.83315 -35.03135 3016 ft 197 kts 161°
2026-04-30 00:05 -7.84475 -35.02440 3011 ft 195 kts 139°
2026-04-30 00:05 -7.85504 -35.01548 3012 ft 195 kts 144°
2026-04-30 00:05 -7.86677 -35.00894 3010 ft 190 kts 158°
2026-04-30 00:05 -7.87918 -35.00480 3012 ft 187 kts 160°
2026-04-30 00:06 -7.89146 -35.00076 3009 ft 185 kts 160°
2026-04-30 00:06 -7.90329 -34.99686 3012 ft 170 kts 160°
2026-04-30 00:06 -7.91400 -34.99333 3009 ft 155 kts 160°
2026-04-30 00:06 -7.92408 -34.98998 3007 ft 150 kts 159°
2026-04-30 00:07 -7.93392 -34.98668 3004 ft 148 kts 160°
2026-04-30 00:07 -7.94360 -34.98347 2897 ft 145 kts 160°
2026-04-30 00:07 -7.95325 -34.98028 2690 ft 146 kts 160°
2026-04-30 00:07 -7.96286 -34.97710 2474 ft 145 kts 161°
2026-04-30 00:08 -7.97242 -34.97395 2223 ft 144 kts 161°
2026-04-30 00:08 -7.98199 -34.97079 1982 ft 145 kts 161°
2026-04-30 00:08 -7.99150 -34.96766 1842 ft 143 kts 161°
2026-04-30 00:08 -8.00099 -34.96453 1815 ft 143 kts 161°
2026-04-30 00:09 -8.01038 -34.96144 1813 ft 144 kts 161°
2026-04-30 00:09 -8.01988 -34.95831 1806 ft 144 kts 161°
2026-04-30 00:09 -8.02941 -34.95516 1703 ft 144 kts 162°
2026-04-30 00:09 -8.03890 -34.95204 1573 ft 142 kts 161°
2026-04-30 00:10 -8.04836 -34.94891 1391 ft 143 kts 161°
2026-04-30 00:10 -8.05776 -34.94582 1215 ft 142 kts 161°
2026-04-30 00:10 -8.06716 -34.94272 1027 ft 142 kts 162°
2026-04-30 00:10 -8.07656 -34.93962 851 ft 142 kts 162°
2026-04-30 00:11 -8.08598 -34.93651 667 ft 143 kts 162°
2026-04-30 00:11 -8.09543 -34.93325 449 ft 144 kts 163°
2026-04-30 00:11 -8.10492 -34.93016 263 ft 143 kts 165°
2026-04-30 00:11 -8.11447 -34.92707 95 ft 145 kts 164°
2026-04-30 00:12 -8.12365 -34.92406 49 ft 127 kts 164°
2026-04-30 00:12 -8.13025 -34.92187 48 ft 53 kts 161°
2026-04-30 00:12 -8.13172 -34.92137 45 ft 18 kts 153°
2026-04-30 00:12 -8.13243 -34.92069 43 ft 11 kts 133°
2026-04-30 00:13 -8.13283 -34.92025 43 ft 6 kts 133°
2026-04-30 00:13 -8.13298 -34.91993 43 ft 4 kts 93°
2026-04-30 00:13 -8.13289 -34.91974 41 ft 3 kts 48°
2026-04-30 00:13 -8.13249 -34.91965 44 ft 5 kts 354°
2026-04-30 00:14 -8.13218 -34.91974 44 ft 4 kts 342°
2026-04-30 00:14 -8.13195 -34.91982 44 ft 3 kts 342°
2026-04-30 00:14 -8.13182 -34.91986 44 ft 3 kts 342°
2026-04-30 00:14 -8.13142 -34.91999 43 ft 5 kts 342°
2026-04-30 00:15 -8.13119 -34.92001 46 ft 3 kts 20°
2026-04-30 00:15 -8.13106 -34.91975 45 ft 4 kts 68°
2026-04-30 00:15 -8.13100 -34.91961 46 ft 1 kts 67°
2026-04-30 00:15 -8.13097 -34.91953 44 ft 2 kts 71°
2026-04-30 00:16 -8.13093 -34.91941 46 ft 1 kts 71°
2026-04-30 00:16 -8.13091 -34.91936 46 ft 0 kts 71°
2026-04-30 00:16 -8.13091 -34.91934 46 ft 1 kts 71°
2026-04-30 00:16 -8.13089 -34.91927 43 ft 0 kts 71°